Flag for Colombia Weather past 2 weeks in Cali, Colombia

Now
75 °F

Clear.


Feels Like: 77 °F
Forecast: 65 / 85 °F
Wind: 9 mph from Northeast

Location: Cali / Alfonso Bonillaaragon

Current Time: Sep 2, 2014 at 12:00:42 AM

Latest Report: Sep 1, 2014 at 11:00 PM


Visibility: 10 mi

Pressure: 29.97 "Hg

Humidity: 69%

Dew point: 64 °F

Location of CaliLocation

Historic Weather in Cali — Graph

°F

Cali temperature yesterday

Maximum temperature yesterday: 91 °F (at 2:00 PM)
Minimum temperature yesterday: 66 °F (at 5:00 AM)
Average temperature yesterday: 77 °F

Past Weeks' High & Low Weather Summary

 TemperatureHumidityPressure
High95 °F (Aug 30, 4:00 PM)94% (Aug 20, 2:00 AM)30.09 "Hg (Aug 20, 2:00 AM)
Low63 °F (Aug 31, 4:00 AM)28% (Aug 19, 2:00 PM)29.80 "Hg (Aug 24, 4:00 PM)
Average76 °F69%29.95 "Hg
* Reported Aug 17 11:00 PM — Sep 1 11:00 PM, Cali, Weather by CustomWeather, © 2014

Note: Actual official high and low records may vary slightly from our data, if they occured in-between our weather recording intervals... More about our weather records

Advertising

Cali weather history for previous 24 hours

 ConditionsComfort  
Time TempWeatherWind HumidityBarometerVisibility
11:00 PM
Sep 1
75 °FClear.9 mph69%29.97 "Hg10 mi
10:00 PM77 °FClear.9 mph65%29.97 "Hg10 mi
9:00 PM77 °FPassing clouds.13 mph65%29.98 "HgN/A
8:00 PM77 °FPassing clouds.9 mph65%29.89 "HgN/A
7:00 PM79 °FPassing clouds.14 mph61%29.85 "HgN/A
6:00 PM81 °FPartly sunny.14 mph62%29.83 "Hg6 mi
5:00 PM84 °FBroken clouds.17 mph55%29.82 "Hg6 mi
4:00 PM88 °FBroken clouds.14 mph49%29.82 "Hg6 mi
3:00 PM90 °FBroken clouds.16 mph43%29.83 "Hg6 mi
2:00 PM91 °FScattered clouds.14 mph41%29.87 "Hg6 mi
1:00 PM90 °FScattered clouds.No wind43%29.90 "Hg6 mi
12:00 PM86 °FScattered clouds.3 mph49%29.93 "HgN/A
11:00 AM84 °FScattered clouds.5 mph51%29.96 "HgN/A
10:00 AM81 °FScattered clouds.No wind58%29.98 "HgN/A
9:00 AM77 °FScattered clouds.5 mph65%30.01 "HgN/A
8:00 AM72 °FSunny.No wind73%30.01 "Hg10 mi
7:00 AM68 °FSunny.No wind83%29.98 "Hg10 mi
6:00 AM66 °FScattered clouds.No wind88%29.97 "HgN/A
5:00 AM66 °FPassing clouds.No wind94%29.94 "HgN/A
4:00 AM68 °FPassing clouds.No wind88%29.93 "HgN/A
3:00 AM70 °FPassing clouds.3 mph88%29.94 "HgN/A
2:00 AM68 °FMild.3 mph88%29.95 "HgN/A
1:00 AM72 °FPassing clouds.No wind83%29.96 "HgN/A
12:00 AM73 °FPassing clouds.7 mph78%29.98 "HgN/A
Weather by CustomWeather, © 2014

See weather overviewHow to use our weather pages